Location: Arbon
(43.0005°N, 0.7472°E)
Time: 08:27:29
(UTC+00:00)

SR - Pass Details

Date: 26 November 2020
Orbit: 575 x 880 km, 66.7° (Epoch: 27 January)

Event Time Altitude Azimuth Distance (km) Brightness Sun altitude
Rises 02:22:59 0° 338° (NNW) 3,139 - -50.4°
Reaches altitude 10° 02:25:48 10° 354° (N) 2,272 - -49.9°
Maximum altitude 02:29:50 22° 44° (NE) 1,665 - -49.2°
Drops below altitude 10° 02:34:05 10° 95° (E) 2,414 - -48.4°
Exits shadow 02:35:22 - 102° (ESE) 2,802 ? -48.2°
Sets 02:37:10 0° 110° (ESE) 3,389 ? -47.9°
